SCOUT A DEB, 2386

Orbit data source: Space-Track

SCOUT A DEB, 2386 is space debris in LEO originally from a launch on Sat, 26 Mar 1966 UTC launched from the Air Force Western Test Range (AFWTR). Debris objects in space refer to the collection of defunct objects orbiting the Earth. Examples of debris include non-operational satellites, rocket bodies, and fragments generated from explosions, collisions, or faulty payload assembly.

Loading next visibility...
Identifier
2386, 1966-024D
Orbit
LEO
Country
Flag of USUS
Related business
Manufacturer
Unknown
Mission
Spacecraft
Bus & Motor
Unknown
Mass
Unknown
Launch date (UTC)
1966-03-26 (60 years ago)
Launch vehicle
Unknown
Launch site
Air Force Western Test Range (AFWTR)
Object type
Payload
Rocket body
Debris
Shape & HBR
Unknown shape, 0.1 m
Radar Cross Section
Small (<0.1 m²)

Expand to show TLE details & history
Last TLE update: 9 hours ago

TLE from 9 hours ago
0 SCOUT A DEB
1 02386U 66024D   26101.09644965  .00000260  00000-0  22024-3 0  9991
2 02386  90.0416 331.0335 0127850 180.6981 179.4031 13.81588012312687
Epoch: 2026-04-11T02:18Z
TLE epoch observation values (Epoch: 2026-04-11T02:18:53.249Z)
Latitude
0.00005°
Longitude
96.99097°
Altitude
1,055.07 km
Speed
7.277 km/s
True Right ascension
22h 04m 08s
True Declination
0° 00' 00"
Sunlit
Object was in daylight at epoch
Visualization orbit readout
Latitude
Unknown
Longitude
Unknown
Altitude
Unknown
Speed
Unknown
Apparent Right ascension
Unknown
Apparent Declination
Unknown
Sunlit
N/A
Visualization observer readout
Local Sidereal Time
17:12:53
Azimuth
Unknown
Elevation
Unknown
Doppler factor
Unknown
Orbital elements
Apogee altitude
1,049.02 km
Perigee altitude
861.505 km
Semi-major axis
7,333.4 km
Eccentricity
0.01279
Inclination
90.0416°
RAAN
331.0335°
Arg. of periapsis
180.6981°
True anomaly
179.41812°
Mean anomaly
179.4031°
Eccentric anomaly
179.41063°
Mean motion
3.45609 °/min
Orbital period
104.16 mins
BSTAR
0.00022024
Loading maneuver chart data...
Computing Atmospheric mass density...
Loading historical data...
Loading historical data...
Loading historical data...
Loading historical data...
Loading historical data...
Loading historical data...
Loading historical data...

Documentation

Showing up to 5 results
|